Weather History for KILG - October, 2012

Change the Weather History Date:

Friday, October 26, 2012

  Actual Average Record
Temperature  
Mean Temperature 64 °F 53 °F  
Max Temperature 68 °F 63 °F 77 °F (1973)
Min Temperature 59 °F 43 °F 26 °F (1933)
Degree Days  
Heating Degree Days 1 12  
Month to date heating degree days 176 224  
Since 1 July heating degree days 217 276  
Cooling Degree Days 0 0  
Month to date cooling degree days 26 15  
Year to date cooling degree days 1387 1142  
Growing Degree Days 14 (Base 50)    
Moisture  
Dew Point 57 °F    
Average Humidity 79    
Maximum Humidity 90    
Minimum Humidity 68    
Precipitation  
Precipitation 0.00 in 0.10 in 1.69 in (2007)
Month to date precipitation 1.24 2.91  
Year to date precipitation 26.40 35.99  
Snow  
Snow 0.00 in 0.00 in 0.30 in (1962)
Month to date snowfall 0.0 0.0  
Since 1 July snowfall 0.0 0.0  
Since 1 September snowfall 0.0 0.0  
Snow Depth 0.00 in    
Sea Level Pressure  
Sea Level Pressure 30.16 in    
Wind  
Wind Speed 6 mph (ENE)    
Max Wind Speed 10 mph    
Max Gust Speed 13 mph    
Visibility 10 miles    
Events      
T = Trace of Precipitation, MM = Missing Value Source: NWS Daily Summary

Daily Weather History Graph

Daily Weather History Graph

Search for Another Location

Airport or City:

Trip Planner

Search our weather history database for the weather conditions in past years. The results will help you decide how hot, cold, wet, or windy it might be!

Date:

Astronomy

Oct. 26, 2012 Rise Set
Actual Time 7:24 AM EDT 6:07 PM EDT
Civil Twilight 6:57 AM EDT 6:34 PM EDT
Nautical Twilight 6:25 AM EDT 7:06 PM EDT
Astronomical Twilight 5:54 AM EDT 7:37 PM EDT
Moon 4:21 PM EDT (10/26) 4:19 AM EDT (10/26)
Length of Visible Light 11h 37m
Length of Day
10h 42m
Waxing Gibbous, 91% of the Moon is Illuminated
Oct 26
Waxing Gibbous
Oct 29
Full
Nov 6
Last Quarter
Nov 13
New
Nov 20
First Quarter

Hourly Weather History & Observations

Time (EDT) Temp. Dew Point Humidity Pressure Visibility Wind Dir Wind Speed Gust Speed Precip Events Conditions
12:51 AM 62.1 °F 57.9 °F 86% 30.20 in 10.0 mi ENE 8.1 mph - N/A   Overcast
1:51 AM 62.1 °F 57.9 °F 86% 30.20 in 10.0 mi ENE 5.8 mph - N/A   Overcast
2:51 AM 61.0 °F 57.9 °F 90% 30.19 in 10.0 mi ENE 8.1 mph - N/A   Overcast
3:51 AM 60.1 °F 57.0 °F 90% 30.19 in 10.0 mi ENE 5.8 mph - N/A   Overcast
4:51 AM 61.0 °F 57.9 °F 90% 30.20 in 10.0 mi NE 4.6 mph - N/A   Overcast
5:51 AM 61.0 °F 57.9 °F 90% 30.19 in 10.0 mi NE 4.6 mph - N/A   Overcast
6:51 AM 61.0 °F 57.0 °F 87% 30.19 in 10.0 mi ENE 8.1 mph - N/A   Overcast
7:23 AM 59.0 °F 55.4 °F 88% 30.20 in 9.0 mi NE 6.9 mph - N/A   Partly Cloudy
7:51 AM 60.1 °F 57.0 °F 90% 30.20 in 6.0 mi NE 6.9 mph - N/A   Scattered Clouds
8:18 AM 60.8 °F 57.2 °F 88% 30.21 in 6.0 mi NNE 6.9 mph - N/A   Mostly Cloudy
8:51 AM 62.1 °F 57.0 °F 84% 30.22 in 7.0 mi NNE 9.2 mph - N/A   Overcast
9:51 AM 63.0 °F 57.0 °F 81% 30.22 in 8.0 mi ENE 8.1 mph - N/A   Overcast
10:51 AM 64.0 °F 57.9 °F 80% 30.22 in 10.0 mi ENE 8.1 mph - N/A   Overcast
11:51 AM 64.9 °F 57.0 °F 75% 30.21 in 10.0 mi East 8.1 mph - N/A   Overcast
12:51 PM 66.0 °F 57.0 °F 73% 30.17 in 10.0 mi ENE 10.4 mph - N/A   Overcast
1:51 PM 68.0 °F 57.9 °F 70% 30.15 in 10.0 mi ENE 5.8 mph - N/A   Overcast
2:51 PM 68.0 °F 57.9 °F 70% 30.13 in 10.0 mi NE 6.9 mph - N/A   Overcast
3:05 PM 68.0 °F 57.2 °F 68% 30.13 in 10.0 mi NNE 8.1 mph - N/A   Overcast
3:51 PM 68.0 °F 57.9 °F 70% 30.12 in 10.0 mi NE 6.9 mph - N/A   Overcast
4:46 PM 66.2 °F 57.2 °F 73% 30.11 in 10.0 mi NE 6.9 mph - N/A   Overcast
4:51 PM 66.9 °F 57.9 °F 73% 30.11 in 10.0 mi NE 5.8 mph - N/A   Overcast
5:51 PM 66.9 °F 57.9 °F 73% 30.10 in 10.0 mi Calm Calm - N/A   Overcast
6:51 PM 66.0 °F 57.9 °F 75% 30.11 in 10.0 mi Calm Calm - N/A   Overcast
7:04 PM 66.2 °F 57.2 °F 73% 30.12 in 10.0 mi North 3.5 mph - N/A   Overcast
7:51 PM 66.0 °F 57.9 °F 75% 30.12 in 10.0 mi ENE 6.9 mph - N/A   Overcast
8:51 PM 64.9 °F 57.0 °F 75% 30.12 in 10.0 mi SE 6.9 mph - N/A   Overcast
9:51 PM 64.0 °F 55.9 °F 75% 30.11 in 10.0 mi East 5.8 mph - N/A   Mostly Cloudy
10:51 PM 63.0 °F 57.0 °F 81% 30.11 in 10.0 mi East 4.6 mph - N/A   Overcast
11:51 PM 62.1 °F 57.0 °F 84% 30.10 in 10.0 mi East 5.8 mph - N/A   Overcast